Regional Weather Roundup
Issued by NWS

Home | Current Version | Previous Version | Graphics & Text | Print | Product List | Glossary On
Versions: 1 2 3 4 5 6 7 8 9 10 11 12 13 14 15 16 17 18 19 20 21 22 23 24 25 26 27 28 29 30 31 32 33 34 35 36 37 38 39 40 41 42 43 44 45 46 47 48 49 50
000
ASUS45 KBOU 030910
RWRCO

WEATHER ROUNDUP FOR COLORADO
NATIONAL WEATHER SERVICE PUEBLO CO
300 AM MDT MON AUG 03 2015

NOTE: "FAIR" INDICATES FEW OR NO CLOUDS BELOW 12000 FEET WITH NO
SIGNIFICANT WEATHER AND/OR OBSTRUCTIONS TO VISIBILITY.

COZ001>005-013-030-031-031000-
...NORTHWEST COLORADO...

CITY           SKY/WX    TMP DP  RH WIND       PRES   REMARKS
CRAIG          CLOUDY    60 N/A N/A CALM      30.16S
HAYDEN         CLOUDY    57  52  82 NW3       30.18S
MEEKER         LGT RAIN  59  55  87 NE3       30.16F
MOUNT WERNER   NOT AVBL
STEAMBOAT SPGS FAIR      55  50  83 N3        30.20S
WALDEN         FAIR      54  43  66 SE6       30.28F
$$

COZ006>008-011-031000-
...WEST CENTRAL VALLEYS...

CITY           SKY/WX    TMP DP  RH WIND       PRES   REMARKS
GRAND JUNCTION CLOUDY    65  56  72 S6        30.07R
MONTROSE       CLOUDY    61  57  87 SW5       30.16R
EAGLE          CLOUDY    59  55  88 CALM      30.22F
RIFLE          CLOUDY    62  58  86 CALM      30.12F
DELTA          NOT AVBL
NUCLA          FAIR      59  55  88 E5        30.19S
$$

COZ017>023-064>068-031000-
...SOUTHWEST COLORADO...

CITY           SKY/WX    TMP DP  RH WIND       PRES   REMARKS
DURANGO        MOCLDY    57  55  93 CALM      30.24R
CORTEZ         CLEAR     61  56  83 S9        30.18R
PAGOSA SPRINGS MOCLDY    56  55  99 W3        30.29R
TELLURIDE      CLOUDY    53  49  87 CALM      30.36S
WOLF CREEK PAS NOT AVBL
$$

COZ009-010-012-014-032>034-037-058>063-031000-
...CENTRAL COLORADO...

CITY           SKY/WX    TMP DP  RH WIND       PRES   REMARKS
ASPEN          CLOUDY    54  52  93 CALM      30.25F
BUENA VISTA    FAIR      54  52  94 E5        30.32S
COPPER MTN     CLOUDY    54  36  50 SE12G24   30.54F
BERTHOUD PASS  CLOUDY    43  32  65 SE17G28   30.61F
COTTONWOOD PAS CLOUDY    52  46  82 SE7       30.42F
GUNNISON       CLOUDY    55  54  94 NE5       30.32R
KREMMLING      CLOUDY    59  43  55 CALM      30.26S
LEADVILLE      CLOUDY    47  46  97 SE6       30.40F
MONARCH PASS   CLOUDY    45  41  87 S14       30.65F
SALIDA         CLOUDY    57  55  94 CALM      30.37
NIWOT RIDGE    NOT AVBL
SUNLIGHT       CLOUDY    46  46 100 SE6       30.46F
WILKERSON PASS CLOUDY    46  41  81 SW9       30.55S
$$

COZ069>075-031000-
...SAN LUIS VALLEY/SANGRE DE CRISTO MOUNTAINS...

CITY           SKY/WX    TMP DP  RH WIND       PRES   REMARKS
ALAMOSA        CLOUDY    56  53  90 W3        30.28S
LA VETA PASS   DRIZZLE   48  37  66 MISG      30.44S
SAGUACHE       CLOUDY    55  54  94 N5        30.31F
$$

COZ035-036-038>040-031000-
...NORTHERN COLORADO FRONT RANGE...

CITY           SKY/WX    TMP DP  RH WIND       PRES   REMARKS
DENVER INTL AP CLOUDY    67  49  52 S12       30.08F
DMNS CITY PARK NOT AVBL
AURORA         MOCLDY    63  52  66 S8        30.11F
FRONT RANGE AP NOT AVBL
ERIE MUNI ARPT FAIR      68  51  53 S3        30.06S
BOULDER MUN AP FAIR      70  50  49 CALM      30.07S
CENTENNIAL     CLOUDY    65  51  60 SE6       30.12F
BROOMFIELD     CLOUDY    68  50  52 SW3       30.10F
LOVELAND       CLOUDY    64  52  63 N5        30.07S
LONGMONT       FAIR      66  55  68 W6        30.08S HAZE
$$

COZ041-046-047-076>085-087-088-031000-
...PIKES PEAK/PALMER DIVIDE AND SOUTHERN FOOTHILLS...

CITY           SKY/WX    TMP DP  RH WIND       PRES   REMARKS
COLO. SPRINGS  CLOUDY    65  51  60 NE5       30.16S
A. F. ACADEMY  CLOUDY    59  51  74 NW6       30.18S
ELLICOTT       FAIR     N/A N/A N/A SE7       30.15S
FALCON         FAIR      62  51  66 NE3       30.22S
FORT CARSON    CLOUDY    65  52  61 N8        30.13S
LIMON          CLOUDY    58  53  84 CALM      30.12S
MONUMENT HILL  NOT AVBL
TRINIDAD       CLOUDY    63  56  78 SW7       30.12F
$$

COZ042>045-048>051-090-091-031000-
...NORTHEAST COLORADO...

CITY           SKY/WX    TMP DP  RH WIND       PRES   REMARKS
GREELEY ARPT   CLOUDY    66  52  59 CALM      30.05S
AKRON          CLOUDY    67  53  61 S10       30.05F
BURLINGTON     MOCLDY    64  59  83 W8        30.03F
WRAY           FAIR      65  58  79 SW7       30.01S
STERLING       FAIR      63  55  77 SW3       30.01S
HOLYOKE        FAIR      66  59  77 S6        30.00F
FORT MORGAN    FAIR      66  50  57 E3        30.04S
$$

COZ086-089-092>099-031000-
...SOUTHEAST COLORADO...

CITY           SKY/WX    TMP DP  RH WIND       PRES   REMARKS
PUEBLO         CLOUDY    71  55  56 CALM      30.05S
LA JUNTA       CLOUDY    70  54  56 NE3       30.02F
LAMAR          PTCLDY    68  61  78 CALM      29.98F
SPRINGFIELD      N/A     67  65  93 SW5       30.03S
$$




USA.gov is the U.S. government's official web portal to all federal, state and local government web resources and services.